Meteo Giornale » Osservazioni meteo Vietnam » Ho Chi Minh
ore: 04:30 - Osservazioni Meteo Ho Chi Minh
Lat. 10° 49' N Lon. 106° 40' E Alt. 19 metri s.l.m.
27 °C
Nuvoloso
Temp. 24 Ore
27 °C
32 °C
Sud-Ovest
11.1 Km/h
Dew point 27 °C
Umidità 100 %
Visibilità 10 Km
Il sole sorge alle ore 05:43
Il sole tramonta alle ore 18:02
| Data e Ora | Cielo e Fenomeni | T °C | DP °C | Um. % | Pres. hPa | Vis. km | Vento km/h | |
|---|---|---|---|---|---|---|---|---|
| Oggi h: 04:30 | Nuvoloso | 27 | 27 | 100 | 1009 | 10 | SO 11.1 | |
| Oggi h: 04:00 | Poco Nuvoloso | 27 | 27 | 100 | 1009 | 10 | SO 11.1 | |
| Oggi h: 03:30 | Poco Nuvoloso | 27 | 27 | 100 | 1009 | 10 | O/SO 11.1 | |
| Oggi h: 03:00 | Poco Nuvoloso | 27 | 27 | 100 | 1009 | 10 | O/SO 11.1 | |
| Oggi h: 02:30 | Sereno | 27 | 27 | 100 | 1009 | 10 | O/SO 14.8 | |
| Oggi h: 02:00 | Sereno | 27 | 27 | 100 | 1009 | 10 | O/SO 14.8 | |
| Oggi h: 01:30 | Sereno | 27 | 27 | 100 | 1009 | 10 | SO 14.8 | |
| Oggi h: 01:00 | Poco Nuvoloso | 28 | 27 | 94 | 1010 | 10 | O/SO 14.8 | |
| Oggi h: 00:30 | Poco Nuvoloso | 28 | 27 | 94 | 1010 | 10 | O/SO 13 | |
| Oggi h: 00:00 | Sereno | 28 | 27 | 94 | 1011 | 10 | O/SO 13 | |
| Ieri h: 23:30 | Sereno | 28 | 26 | 88 | 1011 | 10 | O/SO 11.1 | |
| Ieri h: 23:00 | Sereno | 28 | 26 | 88 | 1011 | 10 | SO 13 | |
| Ieri h: 22:30 | Sereno | 28 | 26 | 88 | 1012 | 10 | SO 14.8 | |
| Ieri h: 22:00 | Poco Nuvoloso | 28 | 26 | 88 | 1011 | 10 | SO 14.8 | |
| Ieri h: 21:30 | Poco Nuvoloso | 29 | 26 | 83 | 1011 | 10 | SO 16.7 | |
| Ieri h: 21:00 | Sereno | 29 | 26 | 83 | 1011 | 10 | SO 14.8 | |
| Ieri h: 20:30 | Poco Nuvoloso | 29 | 26 | 83 | 1010 | 10 | SO 18.5 | |
| Ieri h: 20:00 | Nuvoloso | 29 | 26 | 83 | 1010 | 10 | SO 16.7 | |
| Ieri h: 19:30 | Sereno | 29 | 26 | 83 | 1010 | 10 | SO 14.8 | |
| Ieri h: 19:00 | Sereno | 29 | 27 | 89 | 1009 | 10 | SO 11.1 | |
| Ieri h: 18:30 | Nuvoloso | 29 | 27 | 89 | 1009 | 10 | O/SO 11.1 | |
| Ieri h: 18:00 | Molto Nuvoloso | 29 | 27 | 89 | 1008 | 10 | SO 16.7 | |
| Ieri h: 17:30 | Pioggia nelle vicinanze | 29 | 27 | 89 | 1008 | 8 | O/SO 9.3 | |
| Ieri h: 17:00 | Pioggia | 29 | 27 | 89 | 1008 | 3 | O 11.1 | |
| Ieri h: 16:30 | Pioggia | 29 | 27 | 89 | 1008 | 8 | SO 16.7 | |
| Ieri h: 16:00 | Pioggia nelle vicinanze | 31 | 26 | 74 | 1008 | 8 | O/SO 20.3 | |
| Ieri h: 15:30 | Nuvoloso | 31 | 26 | 74 | 1008 | 10 | SO 20.3 | |
| Ieri h: 15:00 | Poco Nuvoloso | 32 | 25 | 66 | 1008 | 10 | O/SO 22.2 | |
| Ieri h: 14:30 | Poco Nuvoloso | 32 | 25 | 66 | 1008 | 10 | O/SO 24 | |
| Ieri h: 14:00 | Nuvoloso | 32 | 25 | 66 | 1008 | 10 | O 27.8 | |
| Ieri h: 13:30 | Molto Nuvoloso | 32 | 25 | 66 | 1008 | 10 | O 25.9 | |
| Ieri h: 13:00 | Nuvoloso | 32 | 25 | 66 | 1009 | 10 | O/SO 27.8 | |
| Ieri h: 12:30 | Molto Nuvoloso | 32 | 25 | 66 | 1009 | 10 | O/SO 29.6 | |
| Ieri h: 12:00 | Pioggia | 32 | 26 | 70 | 1010 | 10 | O/SO 29.6 | |
| Ieri h: 11:30 | Molto Nuvoloso | 32 | 26 | 70 | 1010 | 10 | O/SO 27.8 | |
| Ieri h: 11:00 | Nuvoloso | 32 | 26 | 70 | 1010 | 10 | O 22.2 | |
| Ieri h: 10:30 | Nuvoloso | 31 | 26 | 74 | 1011 | 10 | O 22.2 | |
| Ieri h: 10:00 | Molto Nuvoloso | 31 | 26 | 74 | 1011 | 10 | O 20.3 | |
| Ieri h: 09:30 | Molto Nuvoloso | 31 | 26 | 74 | 1011 | 10 | O/SO 22.2 | |
| Ieri h: 09:00 | Molto Nuvoloso | 30 | 27 | 84 | 1011 | 10 | O/SO 22.2 | |
| Ieri h: 08:30 | Nuvoloso | 30 | 27 | 84 | 1011 | 10 | O/SO 25.9 | |
| Ieri h: 08:00 | Poco Nuvoloso | 29 | 27 | 89 | 1011 | 10 | O/SO 24 | |
| Ieri h: 07:30 | Poco Nuvoloso | 28 | 27 | 94 | 1010 | 10 | O/SO 18.5 | |
| Ieri h: 07:00 | Nuvoloso | 28 | 27 | 94 | 1010 | 10 | SO 14.8 | |
| Ieri h: 06:30 | Poco Nuvoloso | 27 | 27 | 100 | 1010 | 10 | SO 11.1 | |
| Ieri h: 06:00 | Molto Nuvoloso | 27 | 27 | 100 | 1009 | 10 | SO 13 | |



